Stündliche Wetter Cayo de Willy

Heute, 31 Oktober, Samstag

Zeit Temperatur Niederschläge Wind Luftdruck Luftfeuchtigkeit
00:00 +27°C° 0 mm 1 m/S 760 mmHg 93%
01:00 +26°C° 0 mm 1 m/S 760 mmHg 93%
02:00 +26°C° 0.1 mm 1 m/S 760 mmHg 93%
03:00 +26°C° 0.1 mm 1 m/S 759 mmHg 93%
04:00 +26°C° 0.1 mm 2 m/S 759 mmHg 93%
05:00 +27°C° 0 mm 2 m/S 760 mmHg 92%
06:00 +27°C° 0 mm 2 m/S 760 mmHg 91%
07:00 +28°C° 0 mm 2 m/S 761 mmHg 89%
08:00 +29°C° 0.1 mm 3 m/S 761 mmHg 83%
09:00 +30°C° 0.1 mm 3 m/S 761 mmHg 76%
10:00 +33°C° 0.1 mm 4 m/S 761 mmHg 70%
11:00 +33°C° 0.1 mm 4 m/S 760 mmHg 68%
12:00 +33°C° 0.1 mm 4 m/S 760 mmHg 65%
13:00 +33°C° 0.1 mm 4 m/S 759 mmHg 62%
14:00 +32°C° 0.1 mm 4 m/S 759 mmHg 67%
15:00 +32°C° 0.1 mm 4 m/S 759 mmHg 72%
16:00 +30°C° 0.1 mm 4 m/S 759 mmHg 77%
17:00 +29°C° 0 mm 3 m/S 760 mmHg 81%
18:00 +28°C° 0 mm 3 m/S 760 mmHg 85%
19:00 +27°C° 0 mm 3 m/S 761 mmHg 89%
20:00 +27°C° 0.1 mm 3 m/S 761 mmHg 88%
21:00 +27°C° 0.1 mm 3 m/S 761 mmHg 88%
22:00 +27°C° 0.1 mm 3 m/S 761 mmHg 87%
23:00 +27°C° 0 mm 3 m/S 761 mmHg 88%

Morgen, 1 November, Sonntag

Zeit Temperatur Niederschläge Wind Luftdruck Luftfeuchtigkeit
00:00 +26°C° 0 mm 2 m/S 760 mmHg 89%
01:00 +26°C° 0 mm 2 m/S 760 mmHg 90%
02:00 +26°C° 0 mm 2 m/S 760 mmHg 90%
03:00 +26°C° 0 mm 2 m/S 760 mmHg 90%
04:00 +26°C° 0 mm 2 m/S 760 mmHg 90%
05:00 +26°C° 0.1 mm 2 m/S 760 mmHg 89%
06:00 +27°C° 0.1 mm 2 m/S 761 mmHg 88%
07:00 +27°C° 0.1 mm 2 m/S 761 mmHg 86%
08:00 +29°C° 0 mm 3 m/S 761 mmHg 79%
09:00 +30°C° 0 mm 3 m/S 761 mmHg 71%
10:00 +32°C° 0 mm 4 m/S 761 mmHg 64%
11:00 +32°C° 0 mm 4 m/S 761 mmHg 63%
12:00 +33°C° 0 mm 4 m/S 760 mmHg 61%
13:00 +33°C° 0 mm 4 m/S 759 mmHg 60%
14:00 +31°C° 0 mm 3 m/S 759 mmHg 63%
15:00 +30°C° 0 mm 3 m/S 759 mmHg 65%
16:00 +29°C° 0 mm 3 m/S 759 mmHg 68%
17:00 +28°C° 0 mm 3 m/S 759 mmHg 75%
18:00 +27°C° 0 mm 2 m/S 759 mmHg 81%
19:00 +26°C° 0 mm 2 m/S 760 mmHg 87%
20:00 +26°C° 0.1 mm 2 m/S 760 mmHg 88%
21:00 +26°C° 0.1 mm 2 m/S 760 mmHg 89%
22:00 +25°C° 0.1 mm 1 m/S 760 mmHg 90%
23:00 +25°C° 0.2 mm 1 m/S 760 mmHg 91%

übermorgen, 2 November, Montag

Zeit Temperatur Niederschläge Wind Luftdruck Luftfeuchtigkeit
00:00 +25°C° 0.2 mm 1 m/S 759 mmHg 93%
01:00 +25°C° 0.2 mm 1 m/S 759 mmHg 94%
02:00 +25°C° 0 mm 1 m/S 759 mmHg 94%
03:00 +24°C° 0 mm 1 m/S 759 mmHg 94%
04:00 +24°C° 0 mm 1 m/S 759 mmHg 95%
05:00 +23°C° 0 mm 0 m/S 759 mmHg 93%
06:00 +23°C° 0 mm 0 m/S 759 mmHg 91%
07:00 +24°C° 0 mm 0 m/S 760 mmHg 89%
08:00 +28°C° 0 mm 1 m/S 760 mmHg 82%
09:00 +29°C° 0 mm 1 m/S 760 mmHg 75%
10:00 +31°C° 0 mm 1 m/S 759 mmHg 67%
11:00 +31°C° 0.5 mm 1 m/S 759 mmHg 70%
12:00 +31°C° 0.5 mm 1 m/S 758 mmHg 72%
13:00 +31°C° 0.5 mm 1 m/S 757 mmHg 74%
14:00 +30°C° 1 mm 1 m/S 757 mmHg 78%
15:00 +30°C° 1 mm 1 m/S 757 mmHg 83%
16:00 +29°C° 1 mm 1 m/S 757 mmHg 87%
17:00 +28°C° 0.8 mm 1 m/S 758 mmHg 88%
18:00 +27°C° 0.8 mm 1 m/S 758 mmHg 90%
19:00 +26°C° 0.8 mm 1 m/S 759 mmHg 91%
20:00 +26°C° 0.1 mm 1 m/S 759 mmHg 92%
21:00 +26°C° 0.1 mm 1 m/S 759 mmHg 92%
22:00 +26°C° 0.1 mm 1 m/S 759 mmHg 92%
23:00 +26°C° 0.3 mm 1 m/S 759 mmHg 93%

3 November, Dienstag

Zeit Temperatur Niederschläge Wind Luftdruck Luftfeuchtigkeit
00:00 +26°C° 0.3 mm 1 m/S 758 mmHg 93%
01:00 +26°C° 0.3 mm 1 m/S 758 mmHg 93%
02:00 +26°C° 0.3 mm 1 m/S 758 mmHg 93%
03:00 +26°C° 0.3 mm 1 m/S 758 mmHg 93%
04:00 +26°C° 0.3 mm 1 m/S 758 mmHg 93%
05:00 +26°C° 0.2 mm 1 m/S 758 mmHg 92%
06:00 +27°C° 0.2 mm 1 m/S 759 mmHg 91%
07:00 +27°C° 0.2 mm 1 m/S 759 mmHg 90%
08:00 +28°C° 0.3 mm 1 m/S 760 mmHg 85%
09:00 +30°C° 0.3 mm 2 m/S 760 mmHg 79%
10:00 +31°C° 0.3 mm 3 m/S 760 mmHg 73%
11:00 +31°C° 0 mm 3 m/S 760 mmHg 69%
12:00 +33°C° 0 mm 3 m/S 759 mmHg 66%
13:00 +33°C° 0 mm 3 m/S 758 mmHg 63%
14:00 +31°C° 0.3 mm 3 m/S 758 mmHg 68%
15:00 +30°C° 0.3 mm 3 m/S 758 mmHg 74%
16:00 +29°C° 0.3 mm 3 m/S 758 mmHg 80%
17:00 +29°C° 0 mm 3 m/S 759 mmHg 82%
18:00 +28°C° 0 mm 3 m/S 759 mmHg 84%
19:00 +27°C° 0 mm 3 m/S 760 mmHg 86%
20:00 +27°C° 0 mm 2 m/S 760 mmHg 87%
21:00 +27°C° 0 mm 2 m/S 760 mmHg 88%
22:00 +27°C° 0 mm 2 m/S 761 mmHg 89%
23:00 +27°C° 0.2 mm 2 m/S 760 mmHg 89%

4 November, Mittwoch

Zeit Temperatur Niederschläge Wind Luftdruck Luftfeuchtigkeit
00:00 +26°C° 0.2 mm 2 m/S 760 mmHg 90%
01:00 +26°C° 0.2 mm 2 m/S 760 mmHg 91%
02:00 +26°C° 0.5 mm 2 m/S 760 mmHg 91%
03:00 +26°C° 0.5 mm 2 m/S 760 mmHg 91%
04:00 +26°C° 0.5 mm 2 m/S 760 mmHg 90%
05:00 +26°C° 0.2 mm 2 m/S 761 mmHg 89%
06:00 +27°C° 0.2 mm 2 m/S 761 mmHg 88%
07:00 +27°C° 0.2 mm 2 m/S 761 mmHg 86%
08:00 +28°C° 0.6 mm 3 m/S 761 mmHg 83%
09:00 +29°C° 0.6 mm 3 m/S 762 mmHg 81%
10:00 +30°C° 0.6 mm 3 m/S 762 mmHg 78%
11:00 +30°C° 0.4 mm 4 m/S 761 mmHg 73%
12:00 +32°C° 0.4 mm 4 m/S 761 mmHg 68%
13:00 +32°C° 0.4 mm 4 m/S 760 mmHg 64%
14:00 +32°C° 0.2 mm 4 m/S 760 mmHg 69%
15:00 +30°C° 0.2 mm 3 m/S 760 mmHg 74%
16:00 +29°C° 0.2 mm 3 m/S 760 mmHg 79%
17:00 +28°C° 0.1 mm 3 m/S 760 mmHg 81%
18:00 +27°C° 0.1 mm 3 m/S 761 mmHg 84%
19:00 +27°C° 0.1 mm 2 m/S 761 mmHg 86%
20:00 +26°C° 0 mm 2 m/S 761 mmHg 85%
21:00 +26°C° 0 mm 2 m/S 761 mmHg 84%
22:00 +26°C° 0 mm 2 m/S 761 mmHg 83%
23:00 +26°C° 0.1 mm 2 m/S 761 mmHg 86%

5 November, Donnerstag

Zeit Temperatur Niederschläge Wind Luftdruck Luftfeuchtigkeit
00:00 +26°C° 0.1 mm 2 m/S 761 mmHg 88%
01:00 +25°C° 0.1 mm 2 m/S 761 mmHg 90%
02:00 +25°C° 0.2 mm 2 m/S 761 mmHg 91%
03:00 +25°C° 0.2 mm 1 m/S 760 mmHg 91%
04:00 +25°C° 0.2 mm 1 m/S 760 mmHg 92%
05:00 +25°C° 0.1 mm 1 m/S 760 mmHg 91%
06:00 +26°C° 0.1 mm 1 m/S 760 mmHg 90%
07:00 +26°C° 0.1 mm 2 m/S 761 mmHg 89%
08:00 +27°C° 0.3 mm 2 m/S 761 mmHg 83%
09:00 +29°C° 0.3 mm 2 m/S 761 mmHg 78%
10:00 +30°C° 0.3 mm 3 m/S 761 mmHg 73%
11:00 +30°C° 0.2 mm 3 m/S 760 mmHg 70%
12:00 +31°C° 0.2 mm 3 m/S 759 mmHg 67%
13:00 +31°C° 0.2 mm 3 m/S 758 mmHg 64%
14:00 +30°C° 0.3 mm 3 m/S 758 mmHg 70%
15:00 +29°C° 0.3 mm 3 m/S 758 mmHg 76%
16:00 +28°C° 0.3 mm 3 m/S 758 mmHg 82%
17:00 +28°C° 0.3 mm 3 m/S 758 mmHg 83%
18:00 +27°C° 0.3 mm 3 m/S 759 mmHg 85%
19:00 +27°C° 0.3 mm 3 m/S 759 mmHg 87%
20:00 +27°C° 0.2 mm 3 m/S 759 mmHg 87%
21:00 +27°C° 0.2 mm 2 m/S 759 mmHg 87%
22:00 +27°C° 0.2 mm 2 m/S 759 mmHg 87%
23:00 +26°C° 0.4 mm 2 m/S 759 mmHg 89%
Mehr zeigen